This is the latest recevied weather packets stored in our database for station/object N0HOT. If no packets are shown the sender has not sent any weather packets the latest 10 day(s).
| Time | Temp. | Humidity | Pressure | Rain* | Wind** | Luminosity | Snow |
|---|---|---|---|---|---|---|---|
| 1777499123 | 13.33° C | 28% | 1016 hPa | 0 mm | - | 88 W/m² | - |
| 1777498819 | 13.33° C | 28% | 1016 hPa | 0 mm | - | 500 W/m² | - |
| 1777498516 | 13.33° C | 29% | 1016 hPa | 0 mm | - | 494 W/m² | - |
| 1777498212 | 13.33° C | 29% | 1016.3 hPa | 0 mm | - | 509 W/m² | - |
| 1777497911 | 13.33° C | 28% | 1016.3 hPa | 0 mm | - | 497 W/m² | - |
| 1777497606 | 13.33° C | 27% | 1016.3 hPa | 0 mm | - | 518 W/m² | - |
| 1777497303 | 13.33° C | 29% | 1016 hPa | 0 mm | - | 560 W/m² | - |
| 1777496998 | 13.33° C | 32% | 1016.3 hPa | 0 mm | - | 509 W/m² | - |
| 1777496696 | 12.78° C | 30% | 1016.3 hPa | 0 mm | - | 417 W/m² | - |
| 1777496392 | 12.78° C | 29% | 1016 hPa | 0 mm | - | 175 W/m² | - |
| 1777496089 | 12.78° C | 28% | 1016.3 hPa | 0 mm | - | 683 W/m² | - |
| 1777495784 | 12.78° C | 29% | 1016.3 hPa | 0 mm | - | 683 W/m² | - |
| 1777495481 | 12.78° C | 29% | 1016.7 hPa | 0 mm | - | 139 W/m² | - |
| 1777495177 | 12.22° C | 31% | 1016.7 hPa | 0 mm | - | 755 W/m² | - |
| 1777494875 | 12.78° C | 31% | 1016.7 hPa | 0 mm | - | 163 W/m² | - |
| 1777494572 | 12.78° C | 32% | 1016.7 hPa | 0 mm | - | 198 W/m² | - |
| 1777494269 | 13.33° C | 32% | 1016.7 hPa | 0 mm | - | 171 W/m² | - |
| 1777493965 | 13.33° C | 34% | 1016.7 hPa | 0 mm | - | 203 W/m² | - |
| 1777493664 | 12.78° C | 34% | 1016.7 hPa | 0 mm | - | 200 W/m² | - |
| 1777493361 | 12.78° C | 30% | 1016.7 hPa | 0 mm | - | 191 W/m² | - |
| 1777493057 | 12.78° C | 29% | 1016.7 hPa | 0 mm | - | 371 W/m² | - |
| 1777492754 | 12.78° C | 32% | 1016.7 hPa | 0 mm | - | 271 W/m² | - |
| 1777492449 | 12.22° C | 30% | 1016.7 hPa | 0 mm | - | 721 W/m² | - |
| 1777492146 | 12.22° C | 34% | 1016.7 hPa | 0 mm | - | 240 W/m² | - |
| 1777491843 | 12.78° C | 31% | 1017 hPa | 0 mm | - | 401 W/m² | - |
* Rain latest hour (hover to see other rain measurements)
** Current wind speed in m/s (hover to see current wind gust speed)